Location: ????????
(55.6773°N, 38.2421°E)
Time: 02:17:19
(UTC+00:00)

ACS3 Solar Sail - Visible Passes

Search period start: 14 July 2024 00:00
Search period end: 24 July 2024 00:00
Orbit: 992 x 1023 km, 97.4° (Epoch: 13 July)

Date Brightness Start Highest point End Pass type
(mag) Time Alt. Az. Time Alt. Az. Time Alt. Az.
14 Jul 6.8 20:02:41 10° SW 20:07:28 23° W 20:12:19 10° NNW visible
15 Jul 5.4 18:50:54 10° S 18:57:02 59° W 19:03:14 10° NNW visible
15 Jul 7.2 20:39:37 10° WSW 20:42:35 14° WNW 20:45:32 10° NW visible
16 Jul 6.1 19:26:04 10° SSW 19:31:44 36° W 19:37:28 10° NNW visible
17 Jul 6.8 20:01:53 10° SW 20:06:38 22° W 20:11:25 10° NNW visible
18 Jul 5.4 18:50:03 10° S 18:56:10 58° W 19:02:21 10° NNW visible
18 Jul 7.2 20:38:56 10° WSW 20:41:45 13° WNW 20:44:35 10° NW visible
19 Jul 6.2 19:25:14 10° SSW 19:30:53 35° W 19:36:36 10° NNW visible
20 Jul 6.8 20:01:07 10° SW 20:05:48 22° W 20:10:32 10° NW visible
21 Jul 5.5 18:49:12 10° S 18:55:18 56° W 19:01:30 10° NNW visible
21 Jul 7.2 20:38:15 10° WSW 20:40:55 13° WNW 20:43:37 10° NW visible
22 Jul 6.2 19:24:25 10° SSW 19:30:02 35° W 19:35:44 10° NNW visible
23 Jul 6.9 20:00:20 10° SW 20:04:58 21° W 20:09:38 10° NW visible
